STARLINK-32185, 60341

Orbit data source: Space-Track

STARLINK-32185, 60341 is a payload satellite owned by SpaceX/Seattle (US) in LEO that was launched on Fri, 02 Aug 2024 UTC via an FALCON 9 launch vehicle from the Air Force Eastern Test Range (AFETR). Payload-class satellites include a variety of spacecraft equipped with specific instruments for various scientific and technological missions. These include communications satellites like Starlink; space stations such as the ISS; scientific satellites like the Hubble; Earth observation satellites from companies like Planet Labs, Umbra, and HawkEye 360; GPS; miniature CubeSats for education and research; and military/defense satellites.

Loading next visibility...
Identifier
60341, 2024-136N
Orbit
LEO
Last TLE update
18 hours ago
Origin
Manufacturer
SpaceX/Seattle
Mission
Operational Commercial Communications
Bus & Motor
STARLINK V2M, Unknown motor
Mass
730 kg wet, ~700 kg dry
Launch date (UTC)
2024-08-02 (9 months ago)
Launch vehicle
FALCON 9
Launch site
Air Force Eastern Test Range (AFETR)
Object type
Payload
Rocket body
Debris
Shape & HBR
Box + 2 Pan, 29 m
Radar Cross Section
33.884 m², Large (>1 m²)

Expand to show TLE details & history

TLE from 18 hours ago
0 STARLINK-32185
1 60341U 24136N   25128.52533109  .00001001  00000-0  45946-4 0  9990
2 60341  53.1609  53.0403 0001258  97.1525 262.9619 15.30186657 42946
Epoch: 2025-05-08T12:36Z
Definitive object data (Epoch: 2025-05-08T12:36:28.606Z)
Latitude
0.00001°
Longitude
-2.67346°
Altitude
476.26 km
Speed
7.629 km/s
True Right ascension
03h 32m 09s
True Declination
0° 00' 00"
Sunlit
Object was in daylight at TLE epoch
Visualization TLE readout
Latitude
52.42741°
Longitude
69.47471°
Altitude
480.804 km
Speed
7.632 km/s
Apparent Right ascension
05h 03m 06s
Apparent Declination
11° 45' 13"
Sunlit
Object is in daylight
Visualization observer readout
Local Sidereal Time
14:21:03
Azimuth
314.902° NW
Elevation
-26.115°
Doppler factor
1
Orbital elements
Apogee altitude
476.373 km
Perigee altitude
474.649 km
Semi-major axis
6,853.648 km
Eccentricity
0.0001258
Inclination
53.1609°
RAAN
53.0403°
Arg. of periapsis
97.1525°
True anomaly
262.94759°
Mean anomaly
262.9619°
Eccentric anomaly
262.95475°
Mean motion
3.82526 °/min
BSTAR
0.000045946
Orbital period
94.11 mins
Loading maneuver chart data...
Loading SW <> Apogee altitude chart data...
Loading historical data...
Loading historical data...
Loading historical data...
Loading historical data...
Loading historical data...
Loading historical data...
Loading historical data...

STARLINK-32185 Visibility forecast

Observer location: undefined°, undefined°

Span
Click to sort rows by Start time (UTC) header in descending order
Start Az.
Max El. time (UTC)
Max El. Az.
Max El.
End time (UTC)
End Az.
5 mins2025-05-09 21:44:15.516Z247.313° WSW2025-05-09 21:46:15.516Z338.575° N41.817°2025-05-09 21:49:15.516Z43.647° NE
4 mins2025-05-10 02:41:15.516Z349.737° N2025-05-10 02:43:15.516Z32.017° NE18.438°2025-05-10 02:45:15.516Z67.934° E
5 mins2025-05-10 04:19:15.516Z304.502° NW2025-05-10 04:21:15.516Z199.551° SSW44.247°2025-05-10 04:24:15.516Z136.382° SSE
|